This is the latest recevied weather packets stored in our database for station/object KC3VCX. If no packets are shown the sender has not sent any weather packets the latest 1 day(s).
| Time | Temp. | Humidity | Pressure | Rain* | Wind** | Luminosity | Snow |
|---|---|---|---|---|---|---|---|
| 1778100314 | 11.11° C | 76% | 1012.7 hPa | 0 mm | - | 69 W/m² | - |
| 1778100010 | 11.11° C | 74% | 1012.6 hPa | 0 mm | - | 47 W/m² | - |
| 1778098798 | 11.11° C | 76% | 1012.5 hPa | 0 mm | - | 222 W/m² | - |
| 1778098496 | 11.11° C | 77% | 1012.4 hPa | 0 mm | - | 160 W/m² | - |
| 1778097889 | 11.11° C | 78% | 1012.5 hPa | 0 mm | - | 101 W/m² | - |
| 1778097585 | 11.11° C | 78% | 1012.6 hPa | 0 mm | - | 77 W/m² | - |
| 1778096373 | 11.11° C | 78% | 1012.6 hPa | 0 mm | - | 98 W/m² | - |
| 1778095463 | 11.11° C | 78% | 1012.4 hPa | 0 mm | - | 81 W/m² | - |
| 1778094554 | 11.67° C | 77% | 1012.4 hPa | 0 mm | - | 103 W/m² | - |
| 1778094250 | 11.67° C | 76% | 1012.4 hPa | 0 mm | - | 136 W/m² | - |
| 1778092430 | 11.67° C | 81% | 1012 hPa | 0 mm | - | 145 W/m² | - |
| 1778092128 | 11.67° C | 80% | 1011.9 hPa | 0 mm | - | 144 W/m² | - |
| 1778091825 | 11.67° C | 80% | 1011.8 hPa | 0 mm | - | 180 W/m² | - |
| 1778090917 | 11.67° C | 81% | 1011.8 hPa | 0 mm | - | 374 W/m² | - |
| 1778090613 | 11.67° C | 82% | 1011.9 hPa | 0 mm | - | 230 W/m² | - |
| 1778087577 | 10.56° C | 88% | 1011.8 hPa | 0 mm | - | 147 W/m² | - |
| 1778087275 | 11.67° C | 89% | 1011.8 hPa | 0 mm | - | 135 W/m² | - |
| 1778086971 | 10.56° C | 89% | 1011.8 hPa | 0 mm | - | 459 W/m² | - |
| 1778086367 | 10° C | 91% | 1011.7 hPa | 0 mm | - | 209 W/m² | - |
| 1778078562 | 10° C | 93% | 1010.2 hPa | 1.27 mm | - | 116 W/m² | - |
| 1778077957 | 10° C | 93% | 1010 hPa | 0 mm | - | 67 W/m² | - |
| 1778077353 | 10.56° C | 93% | 1009.7 hPa | 0 mm | - | 96 W/m² | - |
| 1778077051 | 10° C | 93% | 1009.7 hPa | 0 mm | - | 102 W/m² | - |
| 1778076143 | 10° C | 93% | 1009.5 hPa | 0 mm | - | 68 W/m² | - |
| 1778075536 | 10.56° C | 93% | 1009.2 hPa | 0 mm | - | 36 W/m² | - |
* Rain latest hour (hover to see other rain measurements)
** Current wind speed in m/s (hover to see current wind gust speed)